• In Belarus
  • List of Countries
  • For 7 days
  • Water Temperature
  • Satellite Maps
  • Weather Map
  • Weather Widgets
  • user-avatar
    Login

    Hourly Weather Tegucigalpa

    Today, 17 November, Saturday

    Time Temperature Precipitation Wind Pressure Humidity
    00:00 +16°C° 0 mm 3 mps 673 mmHg 87%
    01:00 +16°C° 0 mm 3 mps 673 mmHg 87%
    02:00 +16°C° 0 mm 3 mps 673 mmHg 88%
    03:00 +16°C° 0 mm 3 mps 673 mmHg 88%
    04:00 +16°C° 0 mm 3 mps 673 mmHg 89%
    05:00 +16°C° 0 mm 3 mps 674 mmHg 90%
    06:00 +16°C° 0 mm 3 mps 674 mmHg 91%
    07:00 +18°C° 0 mm 3 mps 675 mmHg 83%
    08:00 +20°C° 0 mm 3 mps 675 mmHg 76%
    09:00 +22°C° 0 mm 3 mps 676 mmHg 68%
    10:00 +25°C° 0 mm 4 mps 676 mmHg 63%
    11:00 +26°C° 0 mm 4 mps 676 mmHg 59%
    12:00 +28°C° 0 mm 4 mps 676 mmHg 54%
    13:00 +27°C° 0 mm 4 mps 675 mmHg 56%
    14:00 +27°C° 0 mm 4 mps 674 mmHg 58%
    15:00 +27°C° 0 mm 4 mps 674 mmHg 60%
    16:00 +25°C° 0 mm 3 mps 674 mmHg 67%
    17:00 +22°C° 0 mm 3 mps 673 mmHg 75%
    18:00 +21°C° 0 mm 2 mps 673 mmHg 83%
    19:00 +20°C° 0 mm 2 mps 674 mmHg 85%
    20:00 +19°C° 0 mm 2 mps 674 mmHg 88%
    21:00 +19°C° 0 mm 2 mps 675 mmHg 91%
    22:00 +19°C° 0 mm 2 mps 674 mmHg 91%
    23:00 +18°C° 0 mm 2 mps 674 mmHg 92%

    Tomorrow, 18 November, Sunday

    Time Temperature Precipitation Wind Pressure Humidity
    00:00 +18°C° 0 mm 2 mps 674 mmHg 92%
    01:00 +18°C° 0 mm 2 mps 674 mmHg 92%
    02:00 +18°C° 0 mm 2 mps 674 mmHg 93%
    03:00 +18°C° 0 mm 2 mps 673 mmHg 93%
    04:00 +18°C° 0 mm 2 mps 673 mmHg 92%
    05:00 +18°C° 0 mm 2 mps 674 mmHg 92%
    06:00 +18°C° 0 mm 2 mps 674 mmHg 92%
    07:00 +20°C° 0 mm 3 mps 675 mmHg 83%
    08:00 +22°C° 0 mm 3 mps 675 mmHg 74%
    09:00 +25°C° 0 mm 3 mps 676 mmHg 66%
    10:00 +26°C° 0 mm 3 mps 676 mmHg 62%
    11:00 +27°C° 0 mm 4 mps 676 mmHg 58%
    12:00 +28°C° 0 mm 4 mps 676 mmHg 55%
    13:00 +28°C° 0 mm 4 mps 675 mmHg 55%
    14:00 +28°C° 0 mm 3 mps 674 mmHg 56%
    15:00 +28°C° 0 mm 3 mps 674 mmHg 56%
    16:00 +26°C° 0.1 mm 3 mps 674 mmHg 65%
    17:00 +24°C° 0.1 mm 2 mps 674 mmHg 74%
    18:00 +21°C° 0.1 mm 2 mps 673 mmHg 83%
    19:00 +21°C° 0 mm 2 mps 674 mmHg 86%
    20:00 +20°C° 0 mm 2 mps 674 mmHg 89%
    21:00 +20°C° 0 mm 2 mps 675 mmHg 93%
    22:00 +20°C° 0 mm 2 mps 675 mmHg 93%
    23:00 +19°C° 0 mm 2 mps 675 mmHg 94%

    Day after tomorrow, 19 November, Monday

    Time Temperature Precipitation Wind Pressure Humidity
    00:00 +19°C° 0 mm 2 mps 674 mmHg 94%
    01:00 +19°C° 0 mm 2 mps 674 mmHg 94%
    02:00 +19°C° 0 mm 2 mps 674 mmHg 94%
    03:00 +19°C° 0 mm 2 mps 673 mmHg 94%
    04:00 +19°C° 0 mm 2 mps 673 mmHg 94%
    05:00 +18°C° 0 mm 2 mps 674 mmHg 94%
    06:00 +18°C° 0 mm 2 mps 674 mmHg 94%
    07:00 +20°C° 0 mm 2 mps 674 mmHg 86%
    08:00 +22°C° 0 mm 3 mps 675 mmHg 78%
    09:00 +25°C° 0 mm 3 mps 676 mmHg 70%
    10:00 +26°C° 0 mm 3 mps 676 mmHg 64%
    11:00 +27°C° 0 mm 3 mps 675 mmHg 58%
    12:00 +29°C° 0 mm 3 mps 675 mmHg 52%
    13:00 +28°C° 0 mm 3 mps 674 mmHg 54%
    14:00 +28°C° 0 mm 3 mps 673 mmHg 56%
    15:00 +28°C° 0 mm 3 mps 673 mmHg 57%
    16:00 +26°C° 0.1 mm 2 mps 673 mmHg 65%
    17:00 +24°C° 0.1 mm 2 mps 673 mmHg 74%
    18:00 +21°C° 0.1 mm 2 mps 673 mmHg 82%
    19:00 +21°C° 0 mm 2 mps 673 mmHg 85%
    20:00 +20°C° 0 mm 2 mps 674 mmHg 87%
    21:00 +20°C° 0 mm 2 mps 674 mmHg 90%
    22:00 +20°C° 0.1 mm 2 mps 674 mmHg 91%
    23:00 +19°C° 0.1 mm 2 mps 674 mmHg 92%

    20 November, Tuesday

    Time Temperature Precipitation Wind Pressure Humidity
    00:00 +19°C° 0.1 mm 2 mps 674 mmHg 93%
    01:00 +19°C° 0 mm 2 mps 674 mmHg 93%
    02:00 +19°C° 0 mm 2 mps 673 mmHg 94%
    03:00 +19°C° 0 mm 2 mps 673 mmHg 94%
    04:00 +19°C° 0 mm 2 mps 673 mmHg 94%
    05:00 +19°C° 0 mm 2 mps 673 mmHg 94%
    06:00 +19°C° 0 mm 2 mps 673 mmHg 93%
    07:00 +20°C° 0 mm 2 mps 674 mmHg 87%
    08:00 +21°C° 0 mm 2 mps 675 mmHg 81%
    09:00 +24°C° 0 mm 3 mps 676 mmHg 75%
    10:00 +25°C° 0 mm 3 mps 676 mmHg 69%
    11:00 +26°C° 0 mm 3 mps 675 mmHg 64%
    12:00 +27°C° 0 mm 3 mps 675 mmHg 58%
    13:00 +27°C° 0 mm 3 mps 674 mmHg 58%
    14:00 +27°C° 0 mm 3 mps 674 mmHg 57%
    15:00 +28°C° 0 mm 3 mps 673 mmHg 56%
    16:00 +26°C° 0.1 mm 3 mps 673 mmHg 65%
    17:00 +24°C° 0.1 mm 2 mps 674 mmHg 73%
    18:00 +21°C° 0.1 mm 2 mps 674 mmHg 82%
    19:00 +21°C° 0.2 mm 2 mps 674 mmHg 85%
    20:00 +20°C° 0.2 mm 2 mps 675 mmHg 88%
    21:00 +20°C° 0.2 mm 2 mps 675 mmHg 91%
    22:00 +20°C° 0 mm 2 mps 675 mmHg 92%
    23:00 +19°C° 0 mm 2 mps 675 mmHg 93%

    21 November, Wednesday

    Time Temperature Precipitation Wind Pressure Humidity
    00:00 +19°C° 0 mm 2 mps 674 mmHg 93%
    01:00 +19°C° 0 mm 2 mps 674 mmHg 93%
    02:00 +19°C° 0 mm 2 mps 674 mmHg 93%
    03:00 +19°C° 0 mm 2 mps 674 mmHg 93%
    04:00 +19°C° 0 mm 2 mps 674 mmHg 93%
    05:00 +19°C° 0 mm 2 mps 674 mmHg 94%
    06:00 +18°C° 0 mm 2 mps 675 mmHg 94%
    07:00 +20°C° 0 mm 2 mps 675 mmHg 87%
    08:00 +21°C° 0 mm 3 mps 676 mmHg 79%
    09:00 +24°C° 0 mm 3 mps 677 mmHg 72%
    10:00 +25°C° 0 mm 3 mps 676 mmHg 65%
    11:00 +27°C° 0 mm 3 mps 676 mmHg 59%
    12:00 +28°C° 0 mm 4 mps 676 mmHg 52%
    13:00 +28°C° 0 mm 4 mps 675 mmHg 51%
    14:00 +28°C° 0 mm 4 mps 675 mmHg 51%
    15:00 +28°C° 0 mm 4 mps 674 mmHg 50%
    16:00 +26°C° 0 mm 3 mps 674 mmHg 59%
    17:00 +24°C° 0 mm 2 mps 674 mmHg 68%
    18:00 +21°C° 0 mm 2 mps 674 mmHg 77%
    19:00 +21°C° 0 mm 2 mps 674 mmHg 81%
    20:00 +20°C° 0 mm 2 mps 675 mmHg 85%
    21:00 +20°C° 0 mm 2 mps 675 mmHg 88%
    22:00 +20°C° 0 mm 2 mps 675 mmHg 89%
    23:00 +19°C° 0 mm 2 mps 675 mmHg 91%

    22 November, Thursday

    Time Temperature Precipitation Wind Pressure Humidity
    00:00 +19°C° 0 mm 2 mps 674 mmHg 92%
    01:00 +19°C° 0 mm 2 mps 674 mmHg 92%
    02:00 +19°C° 0 mm 2 mps 674 mmHg 93%
    03:00 +18°C° 0 mm 2 mps 673 mmHg 93%
    04:00 +18°C° 0 mm 2 mps 674 mmHg 93%
    05:00 +18°C° 0 mm 2 mps 674 mmHg 93%
    06:00 +18°C° 0 mm 2 mps 674 mmHg 93%
    07:00 +20°C° 0 mm 2 mps 675 mmHg 85%
    08:00 +23°C° 0 mm 2 mps 675 mmHg 76%
    09:00 +25°C° 0 mm 3 mps 676 mmHg 67%
    10:00 +26°C° 0 mm 3 mps 676 mmHg 61%
    11:00 +28°C° 0 mm 3 mps 675 mmHg 54%
    12:00 +29°C° 0 mm 3 mps 675 mmHg 48%
    13:00 +29°C° 0 mm 3 mps 674 mmHg 49%
    14:00 +29°C° 0 mm 3 mps 674 mmHg 50%
    15:00 +29°C° 0 mm 3 mps 673 mmHg 51%
    16:00 +27°C° 0.1 mm 3 mps 673 mmHg 61%
    17:00 +25°C° 0.1 mm 2 mps 673 mmHg 70%
    18:00 +23°C° 0.1 mm 2 mps 673 mmHg 79%
    19:00 +21°C° 0.3 mm 2 mps 674 mmHg 83%
    20:00 +20°C° 0.3 mm 2 mps 674 mmHg 87%
    21:00 +20°C° 0.3 mm 2 mps 675 mmHg 91%
    22:00 +19°C° 0 mm 2 mps 674 mmHg 92%
    23:00 +19°C° 0 mm 2 mps 674 mmHg 93%
    Show more